FW8127 Weather Reports


time (UTC)temp
C
wind
direction
speed
KPH
gust
KPH
rain 1hr
cm
rain 24hr
cm
rain mn
cm
humidity
%
barometer
mb
20260505122046 18 242 3.2 16.1 0.00 0.00 0.00 62 1012.3
20260505121551 18 227 6.4 16.1 0.00 0.00 0.00 61 1012.5
20260505121046 18 208 3.2 14.5 0.00 0.00 0.00 62 1012.4
20260505120546 18 236 4.8 14.5 0.00 0.00 0.00 62 1012.4
20260505120053 18 260 6.4 17.7 0.00 0.00 0.00 63 1012.3
20260505115549 18 270 6.4 17.7 0.00 0.00 0.00 63 1012.3
20260505115050 17 246 6.4 22.5 0.00 0.00 0.00 64 1012.2
20260505114551 17 0 4.8 22.5 0.00 0.00 0.00 64 1012.3
20260505114050 17 268 4.8 24.1 0.00 0.00 0.00 64 1012.3
20260505113547 17 186 11.3 24.1 0.00 0.00 0.00 65 1012.2
20260505113110 17 241 3.2 14.5 0.00 0.00 0.00 66 1012.3
20260505112547 17 262 4.8 14.5 0.00 0.00 0.00 66 1012.2
20260505112046 17 251 4.8 12.9 0.00 0.00 0.00 67 1012.3
20260505111555 16 221 3.2 9.7 0.00 0.00 0.00 68 1012.2
20260505111049 16 0 1.6 14.5 0.00 0.00 0.00 69 1012.2
20260505110546 16 220 1.6 14.5 0.00 0.00 0.00 69 1012.0
20260505102048 15 0 0.0 3.2 0.00 0.00 0.00 75 1011.8
20260505101555 15 0 0.0 1.6 0.00 0.00 0.00 74 1011.6
20260505101046 15 0 0.0 3.2 0.00 0.00 0.00 74 1011.6
20260505100548 15 0 0.0 4.8 0.00 0.00 0.00 74 1011.6
20260505100053 15 0 0.0 4.8 0.00 0.00 0.00 74 1011.5
20260505095549 15 0 0.0 4.8 0.00 0.00 0.00 75 1011.5
20260505095046 15 214 1.6 6.4 0.00 0.00 0.00 76 1011.5
20260505094550 15 0 0.0 6.4 0.00 0.00 0.00 77 1011.3
20260505094047 14 0 0.0 6.4 0.00 0.00 0.00 78 1011.5
20260505093547 14 0 1.6 6.4 0.00 0.00 0.00 79 1011.4
20260505093054 14 0 0.0 3.2 0.00 0.00 0.00 80 1011.4
20260505092546 14 0 0.0 3.2 0.00 0.00 0.00 80 1011.3
20260505092047 14 248 0.0 6.4 0.00 0.00 0.00 81 1011.3
20260505091608 14 0 0.0 6.4 0.00 0.00 0.00 81 1011.3
20260505091049 13 0 0.0 6.4 0.00 0.00 0.00 82 1011.4
20260505090546 13 0 0.0 4.8 0.00 0.00 0.00 82 1011.3
20260505090051 13 170 0.0 4.8 0.00 0.00 0.00 83 1011.4
20260505085550 13 0 0.0 3.2 0.00 0.00 0.00 83 1011.4
20260505085049 13 0 0.0 3.2 0.00 0.00 0.00 83 1011.3
20260505084553 13 0 0.0 1.6 0.00 0.00 0.00 82 1011.4
20260505084045 13 0 0.0 1.6 0.00 0.00 0.00 82 1011.4
20260505083548 13 0 0.0 3.2 0.00 0.00 0.00 81 1011.4
20260505083049 13 0 0.0 3.2 0.00 0.00 0.00 81 1011.4
20260505082549 14 0 1.6 3.2 0.00 0.00 0.00 80 1011.5
20260505082047 14 197 0.0 1.6 0.00 0.00 0.00 80 1011.5
20260505081600 14 0 0.0 3.2 0.00 0.00 0.00 79 1011.5
20260505081047 14 197 0.0 3.2 0.00 0.00 0.00 79 1011.5
20260505080546 14 0 0.0 3.2 0.00 0.00 0.00 79 1011.4
20260505080108 15 197 1.6 3.2 0.00 0.00 0.00 78 1011.4
20260505075602 15 197 1.6 3.2 0.00 0.00 0.00 78 1011.4
20260505075051 15 0 0.0 3.2 0.00 0.00 0.00 78 1011.5
20260505074602 15 0 1.6 3.2 0.00 0.00 0.00 77 1011.4
20260505074050 15 198 0.0 3.2 0.00 0.00 0.00 77 1011.4
20260505073551 15 0 0.0 0.0 0.00 0.00 0.00 77 1011.3
20260505073056 15 0 0.0 0.0 0.00 0.00 0.00 77 1011.4
20260505072550 15 0 0.0 1.6 0.00 0.00 0.00 77 1011.3
20260505072050 15 0 0.0 1.6 0.00 0.00 0.00 76 1011.4
20260505071603 15 0 0.0 3.2 0.00 0.00 0.00 76 1011.3
20260505071050 15 0 0.0 3.2 0.00 0.00 0.00 76 1011.3
20260505070550 15 0 1.6 3.2 0.00 0.00 0.00 76 1011.3
20260505070052 15 0 1.6 3.2 0.00 0.00 0.00 76 1011.4
20260505065551 15 198 0.0 3.2 0.00 0.00 0.00 76 1011.4
20260505065050 15 198 0.0 3.2 0.00 0.00 0.00 76 1011.3
20260505064555 15 0 0.0 3.2 0.00 0.00 0.00 76 1011.3
20260505064051 15 0 0.0 3.2 0.00 0.00 0.00 76 1011.3
20260505063550 15 198 0.0 3.2 0.00 0.00 0.00 76 1011.2
20260505063119 15 0 0.0 3.2 0.00 0.00 0.00 75 1011.1
20260505062550 15 0 0.0 3.2 0.00 0.00 0.00 75 1011.3
20260505062049 15 0 0.0 4.8 0.00 0.00 0.00 74 1011.1
20260505061636 15 0 0.0 4.8 0.00 0.00 0.00 74 1011.3
20260505061049 15 0 0.0 4.8 0.00 0.00 0.00 74 1011.3
20260505060552 15 0 0.0 3.2 0.00 0.00 0.00 74 1011.2
20260505060103 15 0 0.0 1.6 0.00 0.00 0.00 73 1011.2
20260505055550 15 0 0.0 4.8 0.00 0.00 0.00 73 1011.3
20260505055050 15 0 0.0 4.8 0.00 0.00 0.00 73 1011.3
20260505054606 15 201 0.0 3.2 0.00 0.00 0.00 73 1011.2
20260505054050 15 0 0.0 8.0 0.00 0.00 0.00 73 1011.3
20260505053551 15 0 0.0 8.0 0.00 0.00 0.00 72 1011.2
20260505053059 15 184 1.6 8.0 0.00 0.00 0.00 72 1011.2
20260505052548 15 177 1.6 8.0 0.00 0.00 0.00 72 1011.2
20260505052048 15 0 1.6 8.0 0.00 0.00 0.00 71 1011.2
20260505051612 15 0 1.6 8.0 0.00 0.00 0.00 71 1011.2
20260505051048 15 0 1.6 8.0 0.00 0.00 0.00 70 1011.2
20260505050547 16 189 0.0 9.7 0.00 0.00 0.00 69 1011.2
20260505041552 16 157 3.2 11.3 0.00 0.00 0.00 64 1011.0
20260505041045 16 218 3.2 11.3 0.00 0.00 0.00 63 1011.1
20260505040548 16 224 4.8 14.5 0.00 0.00 0.00 63 1011.1
20260505040100 16 133 4.8 14.5 0.00 0.00 0.00 62 1011.2
20260505035547 16 158 4.8 12.9 0.00 0.00 0.00 61 1011.1
20260505035044 16 238 3.2 12.9 0.00 0.00 0.00 61 1011.1
20260505034553 16 222 3.2 14.5 0.00 0.00 0.00 60 1011.2
20260505034049 17 0 4.8 17.7 0.00 0.00 0.00 59 1011.1
20260505033545 16 0 4.8 17.7 0.00 0.00 0.00 59 1011.1
20260505033056 17 177 3.2 11.3 0.00 0.00 0.00 58 1011.1
20260505032545 17 146 3.2 16.1 0.00 0.00 0.00 58 1011.1
20260505032046 17 159 3.2 16.1 0.00 0.00 0.00 57 1011.2
20260505031558 17 155 3.2 11.3 0.00 0.00 0.00 56 1011.2
20260505031047 17 170 3.2 14.5 0.00 0.00 0.00 55 1011.2
20260505030548 17 161 3.2 14.5 0.00 0.00 0.00 55 1011.2
20260505030052 17 161 4.8 12.9 0.00 0.00 0.00 54 1011.1
20260505025545 17 118 3.2 12.9 0.00 0.00 0.00 53 1011.2
20260505025047 17 173 3.2 12.9 0.00 0.00 0.00 52 1011.3
20260505024556 17 188 1.6 14.5 0.00 0.00 0.00 52 1011.2
20260505024046 18 193 4.8 16.1 0.00 0.00 0.00 51 1011.4
20260505023548 18 171 6.4 16.1 0.00 0.00 0.00 51 1011.3
20260505023056 18 154 6.4 16.1 0.00 0.00 0.00 51 1011.4
20260505022545 18 155 6.4 16.1 0.00 0.00 0.00 50 1011.5
20260505022049 18 223 3.2 16.1 0.00 0.00 0.00 50 1011.4
20260505021557 18 167 4.8 16.1 0.00 0.00 0.00 49 1011.3
20260505021044 18 188 3.2 9.7 0.00 0.00 0.00 49 1011.3
20260505020545 18 171 1.6 14.5 0.00 0.00 0.00 49 1011.4
20260505020104 18 184 3.2 14.5 0.00 0.00 0.00 48 1011.3
20260505015546 18 220 4.8 14.5 0.00 0.00 0.00 48 1011.3
20260505015049 18 229 3.2 14.5 0.00 0.00 0.00 48 1011.4
20260505014557 18 163 4.8 14.5 0.00 0.00 0.00 47 1011.2
20260505014048 18 150 1.6 14.5 0.00 0.00 0.00 46 1011.2
20260505013550 18 0 4.8 14.5 0.00 0.00 0.00 46 1011.3
20260505013104 18 225 4.8 12.9 0.00 0.00 0.00 46 1011.3
20260505012550 18 185 3.2 11.3 0.00 0.00 0.00 46 1011.2
20260505012053 18 171 1.6 11.3 0.00 0.00 0.00 46 1011.1
20260505011557 18 187 1.6 12.9 0.00 0.00 0.00 46 1011.1
20260505011051 18 153 3.2 12.9 0.00 0.00 0.00 46 1011.0
20260505010551 18 0 3.2 9.7 0.00 0.00 0.00 46 1011.0
20260505010112 18 0 0.0 9.7 0.00 0.00 0.00 47 1011.0
20260505005551 19 244 3.2 8.0 0.00 0.00 0.00 48 1010.8
20260505005050 19 217 3.2 14.5 0.00 0.00 0.00 48 1010.7
20260505004556 19 142 4.8 14.5 0.00 0.00 0.00 48 1010.8
20260505004049 20 157 3.2 12.9 0.00 0.00 0.00 47 1010.8
20260505003547 20 179 3.2 9.7 0.00 0.00 0.00 46 1010.8
20260505003057 20 0 1.6 9.7 0.00 0.00 0.00 44 1010.8
20260505002547 20 182 3.2 12.9 0.00 0.00 0.00 44 1010.7
20260505002049 20 175 3.2 12.9 0.00 0.00 0.00 44 1010.7
20260505001600 20 242 3.2 12.9 0.00 0.00 0.00 44 1010.7
20260505001050 20 218 1.6 14.5 0.00 0.00 0.00 43 1010.7
20260505000551 20 0 3.2 14.5 0.00 0.00 0.00 43 1010.8
20260505000057 20 213 4.8 11.3 0.00 0.00 0.00 42 1010.6
20260504235548 21 221 1.6 11.3 0.00 0.00 0.00 42 1010.7
20260504235048 21 213 3.2 11.3 0.00 0.00 0.00 41 1010.5
20260504234554 21 217 3.2 11.3 0.00 0.00 0.00 41 1010.6
20260504234048 21 221 4.8 11.3 0.00 0.00 0.00 41 1010.6
20260504233548 21 219 1.6 9.7 0.00 0.00 0.00 41 1010.5
20260504233107 21 191 1.6 9.7 0.00 0.00 0.00 40 1010.6
20260504232552 22 171 3.2 9.7 0.00 0.00 0.00 39 1010.6
20260504232047 22 0 1.6 8.0 0.00 0.00 0.00 38 1010.6
20260504231552 22 202 1.6 12.9 0.00 0.00 0.00 37 1010.5
20260504231049 22 168 3.2 12.9 0.00 0.00 0.00 36 1010.5
20260504230549 22 221 4.8 14.5 0.00 0.00 0.00 35 1010.5
20260504230059 22 215 4.8 16.1 0.00 0.00 0.00 35 1010.4
20260504225549 22 270 4.8 16.1 0.00 0.00 0.00 35 1010.5
20260504225048 22 295 6.4 16.1 0.00 0.00 0.00 35 1010.6
20260504224554 22 207 6.4 16.1 0.00 0.00 0.00 35 1010.4
20260504224048 23 240 4.8 19.3 0.00 0.00 0.00 35 1010.6
20260504223549 23 170 8.0 19.3 0.00 0.00 0.00 34 1010.3
20260504223055 23 197 8.0 17.7 0.00 0.00 0.00 35 1010.5
20260504222548 23 252 8.0 16.1 0.00 0.00 0.00 34 1010.5
20260504222048 23 284 6.4 17.7 0.00 0.00 0.00 34 1010.5
20260504221556 23 179 6.4 17.7 0.00 0.00 0.00 35 1010.5
20260504221049 23 254 6.4 17.7 0.00 0.00 0.00 34 1010.6
20260504220548 23 174 8.0 20.9 0.00 0.00 0.00 34 1010.6
20260504220058 23 289 8.0 20.9 0.00 0.00 0.00 33 1010.6
20260504215550 23 281 6.4 25.7 0.00 0.00 0.00 34 1010.6
20260504215048 23 240 6.4 25.7 0.00 0.00 0.00 34 1010.6
20260504214557 23 207 6.4 25.7 0.00 0.00 0.00 34 1010.6
20260504214049 23 263 4.8 20.9 0.00 0.00 0.00 33 1010.6
20260504213547 23 195 11.3 22.5 0.00 0.00 0.00 33 1010.6
20260504213055 23 309 9.7 22.5 0.00 0.00 0.00 33 1010.7
20260504212550 23 294 6.4 17.7 0.00 0.00 0.00 34 1010.7
20260504212050 23 288 4.8 22.5 0.00 0.00 0.00 34 1010.6
20260504211554 23 300 9.7 22.5 0.00 0.00 0.00 34 1010.7
20260504211050 23 223 8.0 22.5 0.00 0.00 0.00 34 1010.7
20260504210549 23 200 9.7 22.5 0.00 0.00 0.00 33 1010.7
20260504210107 23 265 9.7 22.5 0.00 0.00 0.00 32 1010.5
20260504205548 23 281 8.0 22.5 0.00 0.00 0.00 34 1010.7
20260504205048 23 241 8.0 16.1 0.00 0.00 0.00 33 1010.4
20260504204609 23 267 9.7 19.3 0.00 0.00 0.00 33 1010.4
20260504204047 23 206 4.8 19.3 0.00 0.00 0.00 36 1010.7
20260504203551 23 278 6.4 17.7 0.00 0.00 0.00 34 1010.7
20260504203107 22 245 8.0 20.9 0.00 0.00 0.00 35 1010.6
20260504202551 22 287 6.4 24.1 0.00 0.00 0.00 36 1010.7
20260504202049 22 245 9.7 24.1 0.00 0.00 0.00 34 1010.7
20260504201558 22 254 11.3 24.1 0.00 0.00 0.00 37 1011.0
20260504201053 22 298 9.7 20.9 0.00 0.00 0.00 34 1011.1
20260504200549 22 296 4.8 17.7 0.00 0.00 0.00 36 1011.1
20260504195549 22 243 8.0 19.3 0.00 0.00 0.00 34 1011.3
20260504195049 22 194 11.3 22.5 0.00 0.00 0.00 35 1011.4
20260504194602 22 297 9.7 24.1 0.00 0.00 0.00 36 1011.4
20260504194049 22 245 8.0 24.1 0.00 0.00 0.00 35 1011.4
20260504193549 22 255 9.7 24.1 0.00 0.00 0.00 36 1011.5
20260504193059 22 267 6.4 24.1 0.00 0.00 0.00 36 1011.5
20260504192550 22 273 8.0 22.5 0.00 0.00 0.00 35 1011.6
20260504192049 22 255 9.7 22.5 0.00 0.00 0.00 37 1011.6
20260504191554 22 269 11.3 22.5 0.00 0.00 0.00 37 1011.7
20260504191050 22 263 8.0 20.9 0.00 0.00 0.00 36 1011.7
20260504190550 22 244 8.0 19.3 0.00 0.00 0.00 36 1011.8
20260504190121 22 238 8.0 20.9 0.00 0.00 0.00 39 1011.7
20260504185549 22 258 4.8 20.9 0.00 0.00 0.00 36 1011.8
20260504185049 22 284 8.0 22.5 0.00 0.00 0.00 36 1011.9
20260504184553 21 290 11.3 22.5 0.00 0.00 0.00 35 1011.9
20260504184050 22 288 6.4 20.9 0.00 0.00 0.00 35 1012.0
20260504183551 22 209 8.0 20.9 0.00 0.00 0.00 34 1012.0
20260504183054 22 301 6.4 17.7 0.00 0.00 0.00 36 1012.0
20260504182549 22 295 4.8 16.1 0.00 0.00 0.00 37 1012.2
20260504182049 22 220 6.4 16.1 0.00 0.00 0.00 37 1012.4
20260504181555 22 263 3.2 16.1 0.00 0.00 0.00 36 1012.4
20260504181049 21 275 4.8 17.7 0.00 0.00 0.00 36 1012.5
20260504180551 21 232 6.4 17.7 0.00 0.00 0.00 36 1012.6
20260504180051 21 269 6.4 17.7 0.00 0.00 0.00 38 1012.6
20260504175552 21 338 4.8 17.7 0.00 0.00 0.00 40 1012.6
20260504175049 21 259 6.4 14.5 0.00 0.00 0.00 37 1012.8
20260504174558 21 351 4.8 14.5 0.00 0.00 0.00 39 1012.8
20260504174049 21 263 4.8 16.1 0.00 0.00 0.00 37 1012.9
20260504173551 20 325 8.0 19.3 0.00 0.00 0.00 34 1012.8
20260504173052 20 321 9.7 19.3 0.00 0.00 0.00 35 1013.0
20260504172550 21 286 4.8 20.9 0.00 0.00 0.00 39 1013.0
20260504172050 20 324 8.0 20.9 0.00 0.00 0.00 38 1013.1
20260504171553 20 279 6.4 19.3 0.00 0.00 0.00 37 1013.2
20260504171051 20 211 4.8 19.3 0.00 0.00 0.00 39 1013.3
20260504170549 20 285 9.7 16.1 0.00 0.00 0.00 35 1013.3
20260504151049 18 281 6.4 14.5 0.00 0.00 0.00 46 1014.5
20260504150547 18 277 6.4 17.7 0.00 0.00 0.00 46 1014.5
20260504141049 16 277 6.4 16.1 0.00 0.00 0.00 55 1014.5
20260504140549 16 294 6.4 19.3 0.00 0.00 0.00 55 1014.5
20260504130622 15 284 9.7 20.9 0.00 0.00 0.00 59 1015.0